Location: Arrakis Observatory
(44.1122°N, 95.7153°W)
Time: 10:59:50
(UTC-05:00)

Iridium 35 - Visible Passes

Search period start: 25 July 2016 00:00
Search period end: 04 August 2016 00:00
Orbit: 776 x 779 km, 86.4° (Epoch: 24 July)

Date Brightness Start Highest point End Pass type
(mag) Time Alt. Az. Time Alt. Az. Time Alt. Az.
25 Jul 6.9 00:21:28 10° NNW 00:25:24 22° W 00:27:57 16° WSW visible
25 Jul 6.2 22:06:56 10° NNE 22:11:19 26° ENE 22:14:10 17° ESE visible
25 Jul 6.1 23:47:19 10° NNW 23:52:08 39° W 23:54:39 24° SW visible
26 Jul 6.8 21:34:27 10° NE 21:37:27 15° ENE 21:40:25 10° ESE visible
26 Jul 5.2 23:13:32 10° N 23:18:44 70° W 23:21:20 30° SSW visible
27 Jul 5.0 22:40:00 10° N 22:45:13 66° E 22:48:03 27° SSE visible
28 Jul 7.4 00:22:16 10° NW 00:25:19 16° WNW 00:28:21 10° WSW visible
28 Jul 5.7 22:06:44 10° NNE 22:11:34 37° E 22:14:46 19° SE visible
28 Jul 6.7 23:47:44 10° NNW 23:52:07 28° W 23:55:14 16° SW visible
29 Jul 6.4 21:33:50 10° NNE 21:37:47 21° ENE 21:41:30 11° ESE visible
29 Jul 5.8 23:13:46 10° NNW 23:18:47 49° W 23:21:58 21° SSW visible
30 Jul 5.0 22:40:05 10° N 22:45:20 88° W 22:48:43 23° S visible
31 Jul 7.7 00:23:56 10° WNW 00:25:10 11° WNW 00:26:25 10° W visible
31 Jul 5.3 22:06:39 10° N 22:11:45 52° E 22:15:29 18° SSE visible
31 Jul 7.2 23:48:22 10° NW 23:52:03 20° W 23:55:43 10° SW visible
01 Aug 6.0 21:33:30 10° NNE 21:38:04 29° ENE 21:42:15 12° SE visible
01 Aug 6.4 23:14:07 10° NNW 23:18:47 34° W 23:22:45 14° SW visible
02 Aug 5.4 22:40:15 10° N 22:45:25 62° W 22:49:32 16° SSW visible
03 Aug 5.0 22:06:40 10° N 22:11:55 75° E 22:16:21 14° S visible
03 Aug 7.6 23:49:19 10° NW 23:51:55 14° WNW 23:54:31 10° WSW visible
